TimeMST,TemperatureF,Dew PointF,Humidity,Sea Level PressureIn,VisibilityMPH,Wind Direction,Wind SpeedMPH,Gust SpeedMPH,PrecipitationIn,Events,Conditions,WindDirDegrees,DateUTC
1:45 AM,62,55,71,29.90,2,South,2.2,,,,,190,2014-03-19 08:45:00
4:50 AM,61,48,53,29.91,2,SSE,4.5,,,,,160,2014-03-19 11:50:00
5:57 AM,48.2,41.0,76,29.94,10.0,South,6.9,-,N/A,,Scattered Clouds,190,2014-03-19 12:57:00
7:43 AM,55.4,37.4,51,29.98,10.0,South,4.6,-,N/A,,Scattered Clouds,180,2014-03-19 14:43:00
7:50 AM,61,40,34,29.96,12,South,2.2,,,,Clear,180,2014-03-19 14:50:00
8:44 AM,77.0,33.8,21,30.00,10.0,Calm,Calm,-,N/A,,Scattered Clouds,0,2014-03-19 15:44:00
9:41 AM,78.8,17.6,10,30.00,10.0,Calm,Calm,-,N/A,,Scattered Clouds,0,2014-03-19 16:41:00
10:40 AM,83,53,25,30.01,19,North,6.7,,,,Clear,0,2014-03-19 17:40:00
10:40 AM,78.8,32.0,18,30.00,10.0,NW,9.2,-,N/A,,Scattered Clouds,310,2014-03-19 17:40:00
11:42 AM,80.6,53.6,39,29.99,10.0,NNW,11.5,-,N/A,,Scattered Clouds,340,2014-03-19 18:42:00
12:40 PM,77.0,51.8,41,29.98,10.0,NW,13.8,-,N/A,,Partly Cloudy,310,2014-03-19 19:40:00
1:40 PM,82,65,46,29.97,19,NW,13.4,,,,Clear,320,2014-03-19 20:40:00
1:44 PM,77.0,53.6,44,29.95,10.0,NW,18.4,-,N/A,,Scattered Clouds,320,2014-03-19 20:44:00
2:53 PM,77.0,62.6,61,29.95,10.0,NNW,11.5,-,N/A,,Scattered Clouds,330,2014-03-19 21:53:00
3:42 PM,78.8,62.6,57,29.93,10.0,WNW,13.8,-,N/A,,Scattered Clouds,300,2014-03-19 22:42:00
4:43 PM,78.8,62.6,57,29.94,10.0,WNW,6.9,-,N/A,,Scattered Clouds,300,2014-03-19 23:43:00
4:50 PM,84,65,42,29.92,19,NW,8.9,,,,Scattered Clouds,320,2014-03-19 23:50:00
6:14 PM,77.0,60.8,57,29.95,10.0,NNW,11.5,-,N/A,,Scattered Clouds,340,2014-03-20 01:14:00
7:46 PM,71.6,62.6,73,29.99,10.0,NNW,6.9,-,N/A,,Partly Cloudy,340,2014-03-20 02:46:00
7:50 PM,72,68,84,29.97,2,North,6.7,,,,,0,2014-03-20 02:50:00
8:49 PM,69.8,62.6,78,30.00,10.0,Calm,Calm,-,N/A,,Clear,0,2014-03-20 03:49:00
9:48 PM,66.2,60.8,83,30.00,10.0,Calm,Calm,-,N/A,,Clear,0,2014-03-20 04:48:00
10:45 PM,70,67,86,29.96,2,SE,2.2,,,,,140,2014-03-20 05:45:00
10:48 PM,66.2,62.6,88,30.00,10.0,West,6.9,-,N/A,,Clear,270,2014-03-20 05:48:00